{"data":{"norad_id":63327,"epoch":"2026-05-25T04:20:01.387104Z","epoch_age_seconds":62992,"freshness":"FRESH","line1":"1 63327U 25057W   26145.18057161  .00016610  00000+0  61166-3 0  9993","line2":"2 63327  43.0004 311.2675 0001465 274.8166  85.2518 15.27585890 67562","mean_motion":15.2758589,"eccentricity":0.0001465,"inclination_deg":43.0004,"raan_deg":311.2675,"arg_perigee_deg":274.8166,"mean_anomaly_deg":85.2518,"bstar":0.00061166,"rev_number":6756,"period_min":94.266385243975,"perigee_km":482.02629813812,"apogee_km":484.0366204967,"semimajor_km":6861.1684593174,"source":"CELESTRAK","updated_at":"2026-05-25T13:38:19.960409Z"}}